Regional Weather Roundup
Issued by NWS

Home | Current Version | Previous Version | Text Only | Print | Product List | Glossary On
Versions: 1 2 3 4 5 6 7 8 9 10 11 12 13 14 15 16 17 18 19 20 21 22 23 24 25 26 27 28 29 30 31 32 33 34 35 36 37 38 39 40 41 42 43 44 45 46 47 48 49 50
000
ASUS43 KDTX 191501
RWRMI
MICHIGAN HOURLY REGIONAL WEATHER ROUNDUP
NATIONAL WEATHER SERVICE DETROIT/PONTIAC MI
1100 AM EDT SUN APR 19 2015

NOTE: "FAIR" INDICATES FEW OR NO CLOUDS BELOW 12,000 FEET WITH NO
SIGNIFICANT WEATHER AND/OR OBSTRUCTION TO VISIBILITY.

MIZ047>049-052>055-059>063-066>070-074>076-081>083-191600-
SOUTHEAST LOWER MICHIGAN

CITY           SKY/WX    TMP DP  RH WIND       PRES   REMARKS
ADRIAN         MOSUNNY   54  33  45 E17G28    29.93F
ALMA           PTSUNNY   54  30  39 E15       29.98F
ANN ARBOR      MOSUNNY   56  31  38 E16G26    29.96F
BAD AXE        MOSUNNY   48  31  50 E15G25    30.07F
CARO           PTSUNNY   53  30  41 E10G22    30.01F
DETROIT CITY   PTSUNNY   52  33  48 E16G23    30.00F
DETROIT        PTSUNNY   56  31  38 E13G20    29.98F
FLINT          CLOUDY    59  29  31 E13G23    29.98F
GROSSE ILE     PTSUNNY   55  32  41 NE14      29.96F
HILLSDALE      MOSUNNY   58  29  33 E15G24    29.90F
HOWELL         PTSUNNY   56  28  34 E13       29.96F

CITY           SKY/WX    TMP DP  RH WIND       PRES   REMARKS
JACKSON        MOSUNNY   57  31  37 E13       29.92F
LAMBERTVILLE   MOSUNNY   52  34  50 E17G28    29.94F
LANSING        CLOUDY    58  29  33 SE16G22   29.95F
LAPEER         FAIR      54  28  37 SE8G16    30.00F
MASON          PTSUNNY   56  29  35 E10       29.94F
MONROE         PTSUNNY   55  32  41 E12G26    29.94F
PONTIAC        CLOUDY    53  29  39 E20G28    29.98F
PORT HOPE        N/A     43  34  70 E15       30.08F
PORT HURON     MOSUNNY   54  32  43 E12G18    30.03F
TRI CITIES     PTSUNNY   54  29  38 E16       30.01F
TROY           CLOUDY    54  29  38 E14G20    30.02F
SAGINAW HB     PTSUNNY   54  30  40 E14       30.01F
$$
MIZ043>046-050>051-056>058-064>065-071>073-077>080-191600-
SOUTHWEST LOWER MICHIGAN

CITY           SKY/WX    TMP DP  RH WIND       PRES   REMARKS
BATTLE CREEK   PTSUNNY   59  28  30 E15G23    29.90F
BENTON HARBOR  PTSUNNY   58  33  39 E15       29.83F
BIG RAPIDS     SUNNY     54  27  35 SE15G24   29.96F
COLDWATER      MOSUNNY   61  30  31 E13G18    29.88F
FREMONT        FAIR      57  24  28 E10G23    29.92F
HOLLAND        MOSUNNY   59  33  37 E17       29.88F
GRAND RAPIDS   PTSUNNY   56  31  38 E21G26    29.92F
IONIA          FAIR      54  30  39 E15       29.94F
KALAMAZOO      PTSUNNY   60  29  30 E14G21    29.89F
LUDINGTON      MOSUNNY   58  23  25 SE21G30   29.88F
MARSHALL       PTSUNNY   60  30  32 E12G17    29.90F
MOUNT PLEASANT MOSUNNY   53  28  37 E14       29.99F
MUSKEGON       PTSUNNY   58  29  33 E18G26    29.88F
SOUTH HAVEN    PTSUNNY   62  27  26 E15G22    29.85F
$$
MIZ016>042-191600-
NORTHERN LOWER MICHIGAN

CITY           SKY/WX    TMP DP  RH WIND       PRES   REMARKS
ALPENA         MOSUNNY   45  31  58 E15G22    30.12F
BEAVER ISLAND  MOSUNNY   47  28  48 E15G23    29.99F
BELLAIRE       MOSUNNY   55  25  31 E10G22    29.97F
CADILLAC       MOSUNNY   54  28  37 SE15G24   29.96F
CHARLEVOIX     MOSUNNY   52  28  38 E18G25    29.99F
FRANKFORT      CLOUDY    58  19  21 SE15G23   29.90F
GAYLORD        MOSUNNY   49  26  41 SE18G25   30.01F
GRAYLING       MOSUNNY   52  27  37 E16G22    30.02F
HARBOR SPRINGS MOSUNNY   50  28  42 E17       30.01F
HOUGHTON LAKE  SUNNY     52  28  39 E13G20    30.01F
MANISTEE       MOSUNNY   55  27  33 SE15G22   29.91F
OSCODA         MOSUNNY   44  32  62 E13G21    30.11F
PELLSTON       SUNNY     51  28  41 E18G30    30.03F
ROGERS CITY    MOSUNNY   45  33  64 E15       30.12F
TRAVERSE CITY  MOSUNNY   56  26  31 SE14G23   29.94F
$$
MIZ007>008-015-191600-
EASTERN UPPER MICHIGAN

CITY           SKY/WX    TMP DP  RH WIND       PRES   REMARKS
KINROSS        MOSUNNY   41  28  60 E23       30.09F
MACKINAC ISLAN MOSUNNY   37  31  78 E12G29    30.07F WCI  30
NEWBERRY       PTSUNNY   45  30  55 MISG      30.03F
S. S. MARIE    MOSUNNY   40  26  57 E14G30    30.11F WCI  32
$$
MIZ004>006-011>014-085-191600-
CENTRAL UPPER MICHIGAN

CITY           SKY/WX    TMP DP  RH WIND       PRES   REMARKS
MANISTIQUE     MOSUNNY   46  31  56 E18G29    29.99F
ESCANABA       PTSUNNY   46  27  46 E15       29.95F
MENOMINEE      PTSUNNY   45  28  53 E10       29.92F
SAWYER-GWINN   SUNNY     46  27  46 S21       29.92F
$$
MIZ001>003-009>011-084-191600-
WESTERN UPPER MICHIGAN

CITY           SKY/WX    TMP DP  RH WIND       PRES   REMARKS
IRON MOUNTAIN  CLOUDY    45  31  58 SE10      29.89F
HOUGHTON       LGT RAIN  38  29  70 E15       29.85F WCI  29
COPPER HARBOR    N/A     41  28  60 S16G30    29.88F
IRONWOOD       CLOUDY    46  30  53 SE15G26   29.72F
$$

ABBREVIATIONS USED IN REMARKS
   TC - TEMPERATURE IN CELSIUS
  WCI - WIND CHILL INDEX
   HX - HEAT INDEX
  VSB - VISIBILITY



USA.gov is the U.S. government's official web portal to all federal, state and local government web resources and services.